This is the latest recevied weather packets stored in our database for station/object WX2NJ. If no packets are shown the sender has not sent any weather packets the latest 10 day(s).
| Time | Temp. | Humidity | Pressure | Rain* | Wind** | Luminosity | Snow |
|---|---|---|---|---|---|---|---|
| 1778096118 | 20.56° C | 73% | 1011.3 hPa | 0 mm | - | 190 W/m² | - |
| 1778095815 | 20° C | 74% | 1011.2 hPa | 0 mm | - | 137 W/m² | - |
| 1778095512 | 20° C | 73% | 1011.5 hPa | 0 mm | - | 110 W/m² | - |
| 1778095208 | 20° C | 74% | 1011.3 hPa | 0 mm | - | 180 W/m² | - |
| 1778094905 | 20° C | 75% | 1011.4 hPa | 0 mm | - | 137 W/m² | - |
| 1778094601 | 20° C | 75% | 1011.3 hPa | 0 mm | - | 142 W/m² | - |
| 1778094298 | 20° C | 75% | 1011.5 hPa | 0 mm | - | 138 W/m² | - |
| 1778093994 | 19.44° C | 76% | 1011.5 hPa | 0 mm | - | 191 W/m² | - |
| 1778093692 | 19.44° C | 77% | 1011.9 hPa | 0 mm | - | 119 W/m² | - |
| 1778093388 | 19.44° C | 74% | 1011.8 hPa | 0 mm | - | 65 W/m² | - |
| 1778093086 | 19.44° C | 73% | 1011.6 hPa | 0 mm | - | 49 W/m² | - |
| 1778092783 | 20° C | 72% | 1011.7 hPa | 0 mm | - | 46 W/m² | - |
| 1778092478 | 20° C | 71% | 1011.7 hPa | 0 mm | - | 43 W/m² | - |
| 1778092176 | 20.56° C | 70% | 1011.7 hPa | 0 mm | - | 48 W/m² | - |
| 1778091873 | 20.56° C | 69% | 1011.7 hPa | 0 mm | - | 71 W/m² | - |
| 1778091570 | 20.56° C | 69% | 1011.7 hPa | 0 mm | - | 103 W/m² | - |
| 1778091268 | 20.56° C | 69% | 1011.5 hPa | 0 mm | - | 113 W/m² | - |
| 1778090964 | 20.56° C | 70% | 1011.8 hPa | 0 mm | - | 98 W/m² | - |
| 1778090661 | 20.56° C | 69% | 1011.9 hPa | 0 mm | - | 73 W/m² | - |
| 1778090358 | 21.11° C | 69% | 1011.9 hPa | 0 mm | - | 152 W/m² | - |
| 1778090054 | 21.11° C | 69% | 1012.1 hPa | 0 mm | - | 105 W/m² | - |
| 1778089751 | 21.11° C | 69% | 1012.1 hPa | 0 mm | - | 159 W/m² | - |
| 1778089449 | 21.11° C | 69% | 1012.3 hPa | 0 mm | - | 157 W/m² | - |
| 1778089146 | 21.11° C | 69% | 1012.3 hPa | 0 mm | - | 106 W/m² | - |
| 1778088843 | 21.11° C | 69% | 1012.1 hPa | 0 mm | - | 154 W/m² | - |
* Rain latest hour (hover to see other rain measurements)
** Current wind speed in m/s (hover to see current wind gust speed)